M I D A S
Marine Information and Data Acquisition System
Tripno 1519 of the Zeeleeuw from 2008-07-15 08:24:35 to 2008-07-15 13:17:33
Back to CruiseResearch ActivitiesStationsMapUnderway DataData graphs

EquipmentUnitsComments
TimeDGPSUTC
LatitudeDGPSDM.mWGS84
LongitudeDGPSDM.mWGS84
SpeedMeteo Stationm/sRelative wind speed
DirectionMeteo StationdegRelative wind direction
TemperatureMeteo Stationdeg CelciusAir temperature
PressureMeteo StationPaAtmospheric pressure
HumidityMeteo Station%Relative humidity
Missing or incorrect values are displayed as -999
Metereological data collected by the RV Zeeleeuw from 2008-07-15 08:26:28 to 2008-07-15 13:18:59
                                                                                    Next 1000 lines
Time Latitude Longitude Speed Direction Temperature Pressure Humidity
2008-07-15 08:26:38 51°13.624 2°56.045 -999 -999 -999 -999 -999
2008-07-15 08:26:43 51°13.625 2°56.041 -999 -999 -999 -999 -999
2008-07-15 08:26:48 51°13.626 2°56.037 -999 -999 -999 -999 -999
2008-07-15 08:26:53 51°13.627 2°56.031 -999 -999 -999 -999 -999
2008-07-15 08:26:58 51°13.629 2°56.026 -999 -999 -999 -999 -999
2008-07-15 08:27:03 51°13.631 2°56.019 -999 -999 -999 -999 -999
2008-07-15 08:27:08 51°13.633 2°56.012 -999 -999 -999 -999 -999
2008-07-15 08:27:13 51°13.635 2°56.004 -999 -999 -999 -999 -999
2008-07-15 08:27:18 51°13.638 2°55.996 -999 -999 -999 -999 -999
2008-07-15 08:27:23 51°13.64 2°55.987 -999 -999 -999 -999 -999
2008-07-15 08:27:28 51°13.643 2°55.979 -999 -999 -999 -999 -999
2008-07-15 08:27:33 51°13.645 2°55.97 -999 -999 -999 -999 -999
2008-07-15 08:27:38 51°13.648 2°55.961 -999 -999 -999 -999 -999
2008-07-15 08:27:43 51°13.65 2°55.951 -999 -999 -999 -999 -999
2008-07-15 08:27:48 51°13.653 2°55.941 -999 -999 -999 -999 -999
2008-07-15 08:27:53 51°13.656 2°55.932 -999 -999 -999 -999 -999
2008-07-15 08:27:58 51°13.659 2°55.921 -999 -999 -999 -999 -999
2008-07-15 08:28:03 51°13.661 2°55.911 -999 -999 -999 -999 -999
2008-07-15 08:28:08 51°13.664 2°55.901 -999 -999 -999 -999 -999
2008-07-15 08:28:13 51°13.668 2°55.892 -999 -999 -999 -999 -999
2008-07-15 08:28:18 51°13.671 2°55.882 -999 -999 -999 -999 -999
2008-07-15 08:28:23 51°13.674 2°55.872 -999 -999 -999 -999 -999
2008-07-15 08:28:28 51°13.678 2°55.863 -999 -999 -999 -999 -999
2008-07-15 08:28:33 51°13.681 2°55.854 -999 -999 -999 -999 -999
2008-07-15 08:28:38 51°13.684 2°55.845 -999 -999 -999 -999 -999
2008-07-15 08:28:43 51°13.687 2°55.837 -999 -999 -999 -999 -999
2008-07-15 08:28:48 51°13.691 2°55.829 -999 -999 -999 -999 -999
2008-07-15 08:28:53 51°13.694 2°55.82 -999 -999 -999 -999 -999
2008-07-15 08:28:58 51°13.697 2°55.811 -999 -999 -999 -999 -999
2008-07-15 08:29:03 51°13.699 2°55.802 -999 -999 -999 -999 -999
2008-07-15 08:29:08 51°13.702 2°55.793 -999 -999 -999 -999 -999
2008-07-15 08:29:13 51°13.704 2°55.785 -999 -999 -999 -999 -999
2008-07-15 08:29:18 51°13.707 2°55.777 -999 -999 -999 -999 -999
2008-07-15 08:29:23 51°13.708 2°55.769 -999 -999 -999 -999 -999
2008-07-15 08:29:28 51°13.71 2°55.762 -999 -999 -999 -999 -999
2008-07-15 08:29:33 51°13.711 2°55.755 -999 -999 -999 -999 -999
2008-07-15 08:29:38 51°13.713 2°55.748 -999 -999 -999 -999 -999
2008-07-15 08:29:43 51°13.714 2°55.743 -999 -999 -999 -999 -999
2008-07-15 08:29:48 51°13.715 2°55.738 -999 -999 -999 -999 -999
2008-07-15 08:29:53 51°13.715 2°55.734 -999 -999 -999 -999 -999
2008-07-15 08:29:58 51°13.716 2°55.731 -999 -999 -999 -999 -999
2008-07-15 08:30:03 51°13.716 2°55.73 -999 -999 -999 -999 -999
2008-07-15 08:30:08 51°13.717 2°55.731 -999 -999 -999 -999 -999
2008-07-15 08:30:13 51°13.718 2°55.732 -999 -999 -999 -999 -999
2008-07-15 08:30:18 51°13.719 2°55.735 -999 -999 -999 -999 -999
2008-07-15 08:30:23 51°13.721 2°55.738 -999 -999 -999 -999 -999
2008-07-15 08:30:28 51°13.722 2°55.74 -999 -999 -999 -999 -999
2008-07-15 08:30:33 51°13.724 2°55.743 -999 -999 -999 -999 -999
2008-07-15 08:30:38 51°13.726 2°55.745 -999 -999 -999 -999 -999
2008-07-15 08:30:43 51°13.727 2°55.747 -999 -999 -999 -999 -999
2008-07-15 08:30:48 51°13.728 2°55.748 -999 -999 -999 -999 -999
2008-07-15 08:30:53 51°13.729 2°55.748 -999 -999 -999 -999 -999
2008-07-15 08:30:58 51°13.728 2°55.747 -999 -999 -999 -999 -999
2008-07-15 08:31:03 51°13.728 2°55.746 -999 -999 -999 -999 -999
2008-07-15 08:31:08 51°13.726 2°55.745 -999 -999 -999 -999 -999
2008-07-15 08:31:13 51°13.725 2°55.743 -999 -999 -999 -999 -999
2008-07-15 08:31:18 51°13.723 2°55.742 -999 -999 -999 -999 -999
2008-07-15 08:31:23 51°13.722 2°55.741 -999 -999 -999 -999 -999
2008-07-15 08:31:28 51°13.722 2°55.74 -999 -999 -999 -999 -999
2008-07-15 08:31:33 51°13.722 2°55.74 -999 -999 -999 -999 -999
2008-07-15 08:31:38 51°13.723 2°55.74 -999 -999 -999 -999 -999
2008-07-15 08:31:43 51°13.724 2°55.74 -999 -999 -999 -999 -999
2008-07-15 08:31:48 51°13.726 2°55.739 -999 -999 -999 -999 -999
2008-07-15 08:31:53 51°13.729 2°55.738 -999 -999 -999 -999 -999
2008-07-15 08:31:58 51°13.731 2°55.737 -999 -999 -999 -999 -999
2008-07-15 08:32:03 51°13.735 2°55.734 -999 -999 -999 -999 -999
2008-07-15 08:32:08 51°13.739 2°55.73 -999 -999 -999 -999 -999
2008-07-15 08:32:13 51°13.744 2°55.725 -999 -999 -999 -999 -999
2008-07-15 08:32:18 51°13.75 2°55.718 -999 -999 -999 -999 -999
2008-07-15 08:32:23 51°13.756 2°55.711 -999 -999 -999 -999 -999
2008-07-15 08:32:28 51°13.762 2°55.703 -999 -999 -999 -999 -999
2008-07-15 08:32:33 51°13.77 2°55.695 -999 -999 -999 -999 -999
2008-07-15 08:32:38 51°13.777 2°55.687 -999 -999 -999 -999 -999
2008-07-15 08:32:43 51°13.784 2°55.679 -999 -999 -999 -999 -999
2008-07-15 08:32:48 51°13.791 2°55.671 -999 -999 -999 -999 -999
2008-07-15 08:32:53 51°13.799 2°55.663 -999 -999 -999 -999 -999
2008-07-15 08:32:58 51°13.807 2°55.656 -999 -999 -999 -999 -999
2008-07-15 08:33:03 51°13.814 2°55.648 -999 -999 -999 -999 -999
2008-07-15 08:33:08 51°13.822 2°55.641 -999 -999 -999 -999 -999
2008-07-15 08:33:13 51°13.83 2°55.634 -999 -999 -999 -999 -999
2008-07-15 08:33:18 51°13.838 2°55.627 -999 -999 -999 -999 -999
2008-07-15 08:33:23 51°13.847 2°55.62 -999 -999 -999 -999 -999
2008-07-15 08:33:28 51°13.855 2°55.613 -999 -999 -999 -999 -999
2008-07-15 08:33:33 51°13.863 2°55.606 -999 -999 -999 -999 -999
2008-07-15 08:33:38 51°13.872 2°55.6 -999 -999 -999 -999 -999
2008-07-15 08:33:43 51°13.88 2°55.593 -999 -999 -999 -999 -999
2008-07-15 08:33:48 51°13.888 2°55.586 -999 -999 -999 -999 -999
2008-07-15 08:33:53 51°13.897 2°55.58 -999 -999 -999 -999 -999
2008-07-15 08:33:58 51°13.905 2°55.573 -999 -999 -999 -999 -999
2008-07-15 08:34:03 51°13.914 2°55.566 -999 -999 -999 -999 -999
2008-07-15 08:34:08 51°13.922 2°55.56 -999 -999 -999 -999 -999
2008-07-15 08:34:13 51°13.93 2°55.553 -999 -999 -999 -999 -999
2008-07-15 08:34:18 51°13.938 2°55.547 -999 -999 -999 -999 -999
2008-07-15 08:34:23 51°13.947 2°55.54 -999 -999 -999 -999 -999
2008-07-15 08:34:28 51°13.955 2°55.534 -999 -999 -999 -999 -999
2008-07-15 08:34:33 51°13.963 2°55.528 -999 -999 -999 -999 -999
2008-07-15 08:34:38 51°13.971 2°55.521 -999 -999 -999 -999 -999
2008-07-15 08:34:43 51°13.979 2°55.515 -999 -999 -999 -999 -999
2008-07-15 08:34:48 51°13.987 2°55.509 -999 -999 -999 -999 -999
2008-07-15 08:34:53 51°13.995 2°55.503 -999 -999 -999 -999 -999
2008-07-15 08:34:58 51°14.003 2°55.497 -999 -999 -999 -999 -999
2008-07-15 08:35:03 51°14.011 2°55.491 -999 -999 -999 -999 -999
2008-07-15 08:35:08 51°14.019 2°55.485 -999 -999 -999 -999 -999
2008-07-15 08:35:13 51°14.027 2°55.479 -999 -999 -999 -999 -999
2008-07-15 08:35:18 51°14.035 2°55.473 -999 -999 -999 -999 -999
2008-07-15 08:35:23 51°14.042 2°55.467 -999 -999 -999 -999 -999
2008-07-15 08:35:28 51°14.05 2°55.461 -999 -999 -999 -999 -999
2008-07-15 08:35:33 51°14.058 2°55.455 -999 -999 -999 -999 -999
2008-07-15 08:35:38 51°14.066 2°55.449 -999 -999 -999 -999 -999
2008-07-15 08:35:43 51°14.074 2°55.443 -999 -999 -999 -999 -999
2008-07-15 08:35:48 51°14.082 2°55.437 -999 -999 -999 -999 -999
2008-07-15 08:35:53 51°14.09 2°55.431 -999 -999 -999 -999 -999
2008-07-15 08:35:58 51°14.098 2°55.425 -999 -999 -999 -999 -999
2008-07-15 08:36:03 51°14.107 2°55.418 -999 -999 -999 -999 -999
2008-07-15 08:36:08 51°14.117 2°55.41 -999 -999 -999 -999 -999
2008-07-15 08:36:13 51°14.126 2°55.402 -999 -999 -999 -999 -999
2008-07-15 08:36:18 51°14.136 2°55.394 -999 -999 -999 -999 -999
2008-07-15 08:36:23 51°14.146 2°55.385 -999 -999 -999 -999 -999
2008-07-15 08:36:28 51°14.157 2°55.376 -999 -999 -999 -999 -999
2008-07-15 08:36:33 51°14.167 2°55.366 -999 -999 -999 -999 -999
2008-07-15 08:36:38 51°14.177 2°55.356 -999 -999 -999 -999 -999
2008-07-15 08:36:43 51°14.188 2°55.345 -999 -999 -999 -999 -999
2008-07-15 08:36:48 51°14.199 2°55.333 -999 -999 -999 -999 -999
2008-07-15 08:36:53 51°14.209 2°55.321 -999 -999 -999 -999 -999
2008-07-15 08:36:58 51°14.219 2°55.308 -999 -999 -999 -999 -999
2008-07-15 08:37:03 51°14.229 2°55.294 -999 -999 -999 -999 -999
2008-07-15 08:37:08 51°14.239 2°55.28 -999 -999 -999 -999 -999
2008-07-15 08:37:13 51°14.249 2°55.265 -999 -999 -999 -999 -999
2008-07-15 08:37:18 51°14.259 2°55.25 -999 -999 -999 -999 -999
2008-07-15 08:37:23 51°14.268 2°55.235 -999 -999 -999 -999 -999
2008-07-15 08:37:28 51°14.278 2°55.219 -999 -999 -999 -999 -999
2008-07-15 08:37:33 51°14.287 2°55.203 -999 -999 -999 -999 -999
2008-07-15 08:37:38 51°14.297 2°55.186 -999 -999 -999 -999 -999
2008-07-15 08:37:43 51°14.306 2°55.17 -999 -999 -999 -999 -999
2008-07-15 08:37:48 51°14.316 2°55.154 -999 -999 -999 -999 -999
2008-07-15 08:37:53 51°14.326 2°55.138 -999 -999 -999 -999 -999
2008-07-15 08:37:58 51°14.336 2°55.121 -999 -999 -999 -999 -999
2008-07-15 08:38:03 51°14.346 2°55.105 -999 -999 -999 -999 -999
2008-07-15 08:38:08 51°14.356 2°55.088 -999 -999 -999 -999 -999
2008-07-15 08:38:13 51°14.367 2°55.071 -999 -999 -999 -999 -999
2008-07-15 08:38:18 51°14.377 2°55.055 -999 -999 -999 -999 -999
2008-07-15 08:38:23 51°14.389 2°55.04 -999 -999 -999 -999 -999
2008-07-15 08:38:28 51°14.402 2°55.026 -999 -999 -999 -999 -999
2008-07-15 08:38:33 51°14.414 2°55.012 -999 -999 -999 -999 -999
2008-07-15 08:38:38 51°14.427 2°54.999 -999 -999 -999 -999 -999
2008-07-15 08:38:43 51°14.441 2°54.988 -999 -999 -999 -999 -999
2008-07-15 08:38:48 51°14.456 2°54.977 -999 -999 -999 -999 -999
2008-07-15 08:38:53 51°14.471 2°54.967 -999 -999 -999 -999 -999
2008-07-15 08:38:58 51°14.487 2°54.957 -999 -999 -999 -999 -999
2008-07-15 08:39:03 51°14.503 2°54.948 -999 -999 -999 -999 -999
2008-07-15 08:39:08 51°14.519 2°54.938 -999 -999 -999 -999 -999
2008-07-15 08:39:13 51°14.535 2°54.928 -999 -999 -999 -999 -999
2008-07-15 08:39:18 51°14.551 2°54.918 -999 -999 -999 -999 -999
2008-07-15 08:39:23 51°14.567 2°54.909 -999 -999 -999 -999 -999
2008-07-15 08:39:28 51°14.583 2°54.899 -999 -999 -999 -999 -999
2008-07-15 08:39:33 51°14.599 2°54.889 -999 -999 -999 -999 -999
2008-07-15 08:39:38 51°14.616 2°54.88 -999 -999 -999 -999 -999
2008-07-15 08:39:43 51°14.632 2°54.87 -999 -999 -999 -999 -999
2008-07-15 08:39:48 51°14.648 2°54.86 -999 -999 -999 -999 -999
2008-07-15 08:39:53 51°14.664 2°54.853 -999 -999 -999 -999 -999
2008-07-15 08:39:58 51°14.681 2°54.842 8.9 10 -999 -999 -999
2008-07-15 08:40:03 51°14.697 2°54.832 9.3 10 -999 -999 -999
2008-07-15 08:40:08 51°14.713 2°54.822 9.2 33 -999 -999 -999
2008-07-15 08:40:13 51°14.729 2°54.811 7.9 25 -999 -999 -999
2008-07-15 08:40:18 51°14.745 2°54.799 7.6 238 -999 -999 -999
2008-07-15 08:40:22 51°14.757 2°54.789 10 27 17.1 -999 73
2008-07-15 08:40:27 51°14.772 2°54.776 9.7 237 17.1 -999 73
2008-07-15 08:40:32 51°14.787 2°54.763 9.4 23 17.2 -999 82
2008-07-15 08:40:37 51°14.801 2°54.749 9.8 31 17.2 -999 82
2008-07-15 08:40:42 51°14.816 2°54.735 10.3 20 17.2 102580 82
2008-07-15 08:40:47 51°14.83 2°54.72 7.7 237 17.2 102580 82
2008-07-15 08:40:52 51°14.844 2°54.706 9.6 22 17.2 102570 83
2008-07-15 08:40:57 51°14.859 2°54.692 8.7 238 17.2 102570 83
2008-07-15 08:41:02 51°14.873 2°54.678 9.3 29 17.2 102570 83
2008-07-15 08:41:07 51°14.887 2°54.663 10.8 240 17.2 102570 83
2008-07-15 08:41:12 51°14.902 2°54.649 8.8 28 17.2 102570 83
2008-07-15 08:41:17 51°14.916 2°54.636 10.3 233 17.2 102570 83
2008-07-15 08:41:22 51°14.931 2°54.621 8.8 24 17.2 102570 83
2008-07-15 08:41:26 51°14.943 2°54.61 10.7 242 17.2 102570 83
2008-07-15 08:41:31 51°14.957 2°54.597 9.3 27 17.2 102570 83
2008-07-15 08:41:36 51°14.972 2°54.583 9 235 17.2 102570 83
2008-07-15 08:41:41 51°14.987 2°54.57 9.4 26 17.2 102570 83
2008-07-15 08:41:46 51°15.001 2°54.556 10.1 236 17.2 102570 83
2008-07-15 08:41:51 51°15.015 2°54.542 8.7 24 17.2 102560 83
2008-07-15 08:41:56 51°15.03 2°54.528 10.6 235 17.2 102560 83
2008-07-15 08:42:01 51°15.044 2°54.514 10.7 27 17.2 102570 83
2008-07-15 08:42:06 51°15.059 2°54.501 8.5 35 17.2 102570 83
2008-07-15 08:42:11 51°15.073 2°54.487 10.3 22 17.2 102560 83
2008-07-15 08:42:15 51°15.085 2°54.477 10.9 239 17.2 102560 83
2008-07-15 08:42:20 51°15.099 2°54.464 9 28 17.2 102570 83
2008-07-15 08:42:25 51°15.114 2°54.453 8.6 241 17.2 102570 83
2008-07-15 08:42:30 51°15.129 2°54.441 8 25 17.2 102580 84
2008-07-15 08:42:35 51°15.144 2°54.429 10.6 242 17.2 102580 84
2008-07-15 08:42:40 51°15.159 2°54.416 8 27 17.2 102570 83
2008-07-15 08:42:45 51°15.174 2°54.404 10 236 17.2 102570 83
2008-07-15 08:42:50 51°15.189 2°54.391 7.6 26 17.2 102570 83
2008-07-15 08:42:55 51°15.204 2°54.378 10.3 236 17.2 102570 83
2008-07-15 08:43:00 51°15.219 2°54.366 7.7 28 17.2 102570 83
2008-07-15 08:43:05 51°15.233 2°54.353 8.2 237 17.2 102570 83
2008-07-15 08:43:10 51°15.249 2°54.341 9.9 22 17.2 102580 84
2008-07-15 08:43:14 51°15.261 2°54.33 8.5 236 17.2 102580 84
2008-07-15 08:43:19 51°15.276 2°54.319 10.5 26 17.2 102580 83
2008-07-15 08:43:25 51°15.294 2°54.304 10.3 239 17.2 102580 83
2008-07-15 08:43:30 51°15.309 2°54.292 10.2 24 17.2 102580 83
2008-07-15 08:43:34 51°15.321 2°54.282 9.6 236 17.2 102580 83
2008-07-15 08:43:39 51°15.337 2°54.27 8.4 27 17.2 102570 84
2008-07-15 08:43:45 51°15.356 2°54.256 8.1 239 17.2 102570 84
2008-07-15 08:43:49 51°15.368 2°54.247 10.5 22 17.2 102570 83
2008-07-15 08:43:54 51°15.383 2°54.235 8.2 240 17.2 102570 83
2008-07-15 08:43:59 51°15.398 2°54.223 8.6 24 17.2 102570 83
2008-07-15 08:44:04 51°15.413 2°54.21 7.9 238 17.2 102570 83
2008-07-15 08:44:10 51°15.432 2°54.196 9.1 23 17.2 102570 84
2008-07-15 08:44:14 51°15.444 2°54.186 8.5 240 17.2 102570 84
2008-07-15 08:44:19 51°15.459 2°54.173 11.3 28 17.2 102560 84
2008-07-15 08:44:24 51°15.473 2°54.159 11.1 240 17.2 102560 84
2008-07-15 08:44:30 51°15.491 2°54.143 11.4 24 17.2 102570 83
2008-07-15 08:44:34 51°15.502 2°54.132 8.1 240 17.2 102570 83
2008-07-15 08:44:39 51°15.517 2°54.119 10.8 27 17.2 102570 84
2008-07-15 08:44:44 51°15.532 2°54.106 10.5 239 17.2 102570 84
2008-07-15 08:44:49 51°15.547 2°54.092 11.1 22 17.2 102560 83
2008-07-15 08:44:54 51°15.561 2°54.079 12.1 241 17.2 102560 83
2008-07-15 08:44:59 51°15.576 2°54.065 9.9 26 17.2 102560 84
2008-07-15 08:45:04 51°15.591 2°54.052 8.9 241 17.2 102560 84
2008-07-15 08:45:09 51°15.605 2°54.039 11.8 22 17.2 102570 84
2008-07-15 08:45:14 51°15.62 2°54.026 11.6 240 17.2 102570 84
2008-07-15 08:45:19 51°15.635 2°54.013 8.5 25 17.2 102560 84
2008-07-15 08:45:25 51°15.652 2°53.997 8.7 241 17.2 102560 84
2008-07-15 08:45:30 51°15.667 2°53.983 8.8 26 17.2 102550 83
2008-07-15 08:45:34 51°15.679 2°53.972 11.2 239 17.2 102550 83
2008-07-15 08:45:39 51°15.693 2°53.959 11.7 25 17.2 102560 83
2008-07-15 08:45:45 51°15.711 2°53.942 9.4 242 17.2 102560 83
2008-07-15 08:45:49 51°15.722 2°53.931 11.9 27 17.2 102550 84
2008-07-15 08:45:54 51°15.736 2°53.916 11.7 240 17.2 102550 84
2008-07-15 08:45:59 51°15.751 2°53.902 10.4 25 17.2 102560 84
2008-07-15 08:46:05 51°15.768 2°53.886 10.7 235 17.2 102560 84
2008-07-15 08:46:10 51°15.783 2°53.872 8.8 28 17.2 102550 83
2008-07-15 08:46:14 51°15.795 2°53.861 9.7 240 17.2 102550 83
2008-07-15 08:46:19 51°15.809 2°53.847 9.3 25 17.2 102550 84
2008-07-15 08:46:25 51°15.827 2°53.831 10.9 241 17.2 102550 84
2008-07-15 08:46:30 51°15.841 2°53.817 8.9 241 17.2 102550 83
2008-07-15 08:46:34 51°15.853 2°53.806 10 239 17.2 102550 83
2008-07-15 08:46:39 51°15.867 2°53.792 8.3 21 17.2 102550 83
2008-07-15 08:46:44 51°15.882 2°53.779 8 241 17.2 102550 83
2008-07-15 08:46:50 51°15.9 2°53.763 8 29 17.2 102560 83
2008-07-15 08:46:54 51°15.911 2°53.752 10.2 238 17.2 102560 83
2008-07-15 08:46:59 51°15.926 2°53.738 9.3 26 17.2 102560 83
2008-07-15 08:47:04 51°15.941 2°53.725 11.2 244 17.2 102560 83
2008-07-15 08:47:09 51°15.955 2°53.712 11.3 25 17.2 102560 84
2008-07-15 08:47:15 51°15.973 2°53.695 9.1 245 17.2 102560 84
2008-07-15 08:47:19 51°15.985 2°53.685 9.9 245 17.2 102550 84
2008-07-15 08:47:24 51°16 2°53.671 8.9 241 17.2 102550 84
2008-07-15 08:47:30 51°16.017 2°53.655 10.1 25 17.2 102550 84
2008-07-15 08:47:34 51°16.029 2°53.645 13.3 242 17.2 102550 84
2008-07-15 08:47:39 51°16.043 2°53.63 13.1 23 17.2 102550 83
2008-07-15 08:47:44 51°16.058 2°53.617 9.8 246 17.2 102550 83
2008-07-15 08:47:49 51°16.072 2°53.603 12.6 26 17.2 102550 83
2008-07-15 08:47:54 51°16.086 2°53.588 8.7 242 17.2 102550 83
2008-07-15 08:47:59 51°16.101 2°53.575 12.6 23 17.2 102550 83
2008-07-15 08:48:04 51°16.115 2°53.562 9.6 246 17.2 102550 83
2008-07-15 08:48:10 51°16.133 2°53.545 9.3 26 17.2 102540 83
2008-07-15 08:48:14 51°16.145 2°53.534 8.4 242 17.2 102540 83
2008-07-15 08:48:19 51°16.159 2°53.521 8.8 25 17.2 102550 83
2008-07-15 08:48:25 51°16.177 2°53.505 11.6 242 17.2 102550 83
2008-07-15 08:48:30 51°16.192 2°53.492 9 23 17.2 102540 83
2008-07-15 08:48:34 51°16.204 2°53.481 8.9 242 17.2 102540 83
2008-07-15 08:48:39 51°16.218 2°53.467 10.4 25 17.2 102560 83
2008-07-15 08:48:44 51°16.233 2°53.453 11.7 245 17.2 102560 83
2008-07-15 08:48:50 51°16.25 2°53.436 8.9 245 17.2 102550 83
2008-07-15 08:48:54 51°16.262 2°53.426 12.3 247 17.2 102550 83
2008-07-15 08:48:59 51°16.277 2°53.412 11.1 245 17.2 102550 83
2008-07-15 08:49:04 51°16.292 2°53.4 12 245 17.2 102550 83
2008-07-15 08:49:09 51°16.306 2°53.387 8.8 248 17.2 102560 83
2008-07-15 08:49:15 51°16.325 2°53.373 10.1 244 17.2 102560 83
2008-07-15 08:49:19 51°16.337 2°53.362 8.2 26 17.2 102560 83
2008-07-15 08:49:24 51°16.352 2°53.35 11.1 245 17.2 102560 83
2008-07-15 08:49:29 51°16.367 2°53.338 11.3 245 17.2 102560 83
2008-07-15 08:49:34 51°16.382 2°53.327 10.5 244 17.2 102560 83
2008-07-15 08:49:39 51°16.397 2°53.316 8.6 244 17.2 102550 83
2008-07-15 08:49:44 51°16.412 2°53.304 11.1 248 17.2 102550 83
2008-07-15 08:49:49 51°16.427 2°53.293 10.4 248 17.2 102560 83
2008-07-15 08:49:54 51°16.441 2°53.282 10.1 245 17.2 102560 83
2008-07-15 08:49:59 51°16.455 2°53.271 10.8 243 17.2 102550 84
2008-07-15 08:50:04 51°16.469 2°53.26 11.5 244 17.2 102550 84
2008-07-15 08:50:09 51°16.483 2°53.249 10.9 246 17.2 102550 83
2008-07-15 08:50:14 51°16.497 2°53.238 9 247 17.2 102550 83
2008-07-15 08:50:19 51°16.511 2°53.227 8.2 246 17.2 102560 83
2008-07-15 08:50:25 51°16.527 2°53.214 9.3 240 17.2 102560 83
2008-07-15 08:50:30 51°16.541 2°53.203 8 243 17.2 102560 83
2008-07-15 08:50:34 51°16.552 2°53.194 10.6 243 17.2 102560 83
2008-07-15 08:50:39 51°16.566 2°53.184 9.9 245 17.2 102560 83
2008-07-15 08:50:44 51°16.579 2°53.173 10.2 242 17.2 102560 83
2008-07-15 08:50:49 51°16.593 2°53.164 11.9 249 17.2 102560 83
2008-07-15 08:50:54 51°16.606 2°53.153 11.4 249 17.2 102560 83
2008-07-15 08:50:59 51°16.62 2°53.143 11 249 17.2 102560 83
2008-07-15 08:51:04 51°16.633 2°53.133 9.6 246 17.2 102560 83
2008-07-15 08:51:10 51°16.649 2°53.121 10.6 249 17.2 102570 83
2008-07-15 08:51:14 51°16.659 2°53.112 7.5 248 17.2 102570 83
2008-07-15 08:51:19 51°16.673 2°53.102 10.1 248 17.2 102560 83
2008-07-15 08:51:24 51°16.686 2°53.093 10.3 253 17.2 102560 83
2008-07-15 08:51:30 51°16.702 2°53.081 10.6 251 17.2 102560 83
2008-07-15 08:51:34 51°16.713 2°53.073 10.1 249 17.2 102560 83
2008-07-15 08:51:39 51°16.726 2°53.062 10.9 251 17.2 102560 83
2008-07-15 08:51:44 51°16.739 2°53.052 6.6 244 17.2 102560 83
2008-07-15 08:51:49 51°16.752 2°53.042 9.6 23 17.2 102570 83
2008-07-15 08:51:55 51°16.768 2°53.03 8.8 247 17.2 102570 83
2008-07-15 08:51:59 51°16.778 2°53.022 8.6 248 17.2 102560 83
2008-07-15 08:52:04 51°16.791 2°53.011 10.7 248 17.2 102560 83
2008-07-15 08:52:09 51°16.804 2°53.001 11.1 247 17.2 102550 83
2008-07-15 08:52:15 51°16.82 2°52.988 8.2 246 17.2 102550 83
2008-07-15 08:52:19 51°16.831 2°52.98 8.5 248 17.2 102560 83
2008-07-15 08:52:25 51°16.846 2°52.968 7.9 250 17.2 102560 83
2008-07-15 08:52:30 51°16.859 2°52.957 9.6 248 17.2 102560 83
2008-07-15 08:52:34 51°16.869 2°52.949 8.9 246 17.2 102560 83
2008-07-15 08:52:39 51°16.882 2°52.939 8 250 17.2 102550 83
2008-07-15 08:52:44 51°16.895 2°52.929 10.7 251 17.2 102550 83
2008-07-15 08:52:49 51°16.908 2°52.919 9 278 17.2 102550 83
2008-07-15 08:52:54 51°16.921 2°52.908 8.7 247 17.2 102550 83
2008-07-15 08:52:59 51°16.934 2°52.899 10.5 281 17.2 102570 83
2008-07-15 08:53:05 51°16.95 2°52.887 11.1 246 17.2 102570 83
2008-07-15 08:53:10 51°16.963 2°52.876 10.3 20 17.2 102550 83
2008-07-15 08:53:14 51°16.974 2°52.868 10.7 248 17.2 102550 83
2008-07-15 08:53:19 51°16.987 2°52.858 8.7 249 17.2 102560 83
2008-07-15 08:53:25 51°17.003 2°52.846 8.8 248 17.2 102560 83
2008-07-15 08:53:30 51°17.016 2°52.836 10 278 17.2 102560 83
2008-07-15 08:53:34 51°17.026 2°52.827 7.6 246 17.2 102560 83
2008-07-15 08:53:39 51°17.04 2°52.817 9.8 278 17.2 102560 83
2008-07-15 08:53:44 51°17.053 2°52.807 10 248 17.2 102560 83
2008-07-15 08:53:50 51°17.069 2°52.795 9.6 282 17.2 102560 83
2008-07-15 08:53:55 51°17.082 2°52.785 8.2 248 17.2 102560 83
2008-07-15 08:53:59 51°17.093 2°52.777 7.3 248 17.2 102560 83
2008-07-15 08:54:05 51°17.109 2°52.765 7.5 248 17.2 102560 83
2008-07-15 08:54:10 51°17.122 2°52.754 7.2 249 17.2 102550 83
2008-07-15 08:54:14 51°17.132 2°52.746 10 250 17.2 102550 83
2008-07-15 08:54:19 51°17.145 2°52.735 7.9 284 17.2 102550 83
2008-07-15 08:54:25 51°17.161 2°52.722 8.9 253 17.2 102550 83
2008-07-15 08:54:30 51°17.174 2°52.712 8.9 249 17.2 102560 83
2008-07-15 08:54:34 51°17.184 2°52.704 8.7 248 17.2 102560 83
2008-07-15 08:54:39 51°17.197 2°52.693 8.1 280 17.2 102550 83
2008-07-15 08:54:45 51°17.213 2°52.681 9.3 245 17.2 102550 83
2008-07-15 08:54:50 51°17.226 2°52.67 9 244 17.2 102550 83
2008-07-15 08:54:54 51°17.236 2°52.662 10 246 17.2 102550 83
2008-07-15 08:54:59 51°17.249 2°52.652 11.3 283 17.2 102560 83
2008-07-15 08:55:05 51°17.265 2°52.64 8.5 251 17.2 102560 83
2008-07-15 08:55:10 51°17.278 2°52.629 10.8 250 17.2 102550 84
2008-07-15 08:55:14 51°17.289 2°52.621 8.8 244 17.2 102550 84
2008-07-15 08:55:19 51°17.301 2°52.61 9.8 249 17.2 102560 84
2008-07-15 08:55:25 51°17.317 2°52.597 9.7 248 17.2 102560 84
2008-07-15 08:55:30 51°17.33 2°52.586 10.6 285 17.2 102550 84
2008-07-15 08:55:34 51°17.34 2°52.577 11.1 249 17.2 102550 84
2008-07-15 08:55:39 51°17.353 2°52.566 8.9 281 17.2 102550 83
2008-07-15 08:55:44 51°17.365 2°52.554 9.9 250 17.2 102550 83
2008-07-15 08:55:50 51°17.38 2°52.541 10.2 278 17.2 102560 83
2008-07-15 08:55:55 51°17.393 2°52.529 8 248 17.2 102560 83
2008-07-15 08:55:59 51°17.403 2°52.52 10 248 17.2 102550 83
2008-07-15 08:56:04 51°17.416 2°52.509 8.8 247 17.2 102550 83
2008-07-15 08:56:10 51°17.432 2°52.496 10 248 17.2 102550 83
2008-07-15 08:56:14 51°17.442 2°52.487 8.4 248 17.2 102550 83
2008-07-15 08:56:19 51°17.455 2°52.476 9.9 280 17.2 102550 84
2008-07-15 08:56:25 51°17.47 2°52.463 10.4 249 17.2 102550 84
2008-07-15 08:56:30 51°17.483 2°52.452 8.4 250 17.2 102550 84
2008-07-15 08:56:34 51°17.493 2°52.443 8.2 244 17.2 102550 84
2008-07-15 08:56:39 51°17.505 2°52.432 8.4 279 17.2 102560 84
2008-07-15 08:56:44 51°17.518 2°52.421 11.3 248 17.2 102560 84
2008-07-15 08:56:49 51°17.531 2°52.41 10.5 283 17.2 102560 84
2008-07-15 08:56:54 51°17.543 2°52.398 8.9 247 17.2 102560 84
2008-07-15 08:56:59 51°17.556 2°52.387 10.7 283 17.2 102560 84
2008-07-15 08:57:05 51°17.571 2°52.373 10.7 249 17.2 102560 84
2008-07-15 08:57:10 51°17.583 2°52.362 8.8 251 17.2 102560 84
2008-07-15 08:57:14 51°17.594 2°52.353 9.5 246 17.2 102560 84
2008-07-15 08:57:19 51°17.607 2°52.341 9.3 280 17.2 102550 83
2008-07-15 08:57:25 51°17.622 2°52.327 7.4 245 17.2 102550 83
2008-07-15 08:57:29 51°17.632 2°52.318 7.6 284 17.2 102550 83
2008-07-15 08:57:34 51°17.645 2°52.306 7.3 247 17.2 102550 83
2008-07-15 08:57:39 51°17.657 2°52.295 10.3 286 17.2 102550 83
2008-07-15 08:57:44 51°17.67 2°52.283 8.5 249 17.2 102550 83
2008-07-15 08:57:50 51°17.685 2°52.269 8.1 249 17.2 102560 83
2008-07-15 08:57:55 51°17.698 2°52.258 9.4 244 17.2 102560 83
2008-07-15 08:57:59 51°17.708 2°52.249 10.2 22 17.2 102550 84
2008-07-15 08:58:04 51°17.721 2°52.238 11.3 246 17.2 102550 84
2008-07-15 08:58:10 51°17.736 2°52.224 10.9 245 17.2 102560 84
2008-07-15 08:58:14 51°17.747 2°52.215 8.4 247 17.2 102560 84
2008-07-15 08:58:19 51°17.759 2°52.203 8.7 281 17.2 102550 84
2008-07-15 08:58:25 51°17.774 2°52.189 8.8 249 17.2 102550 84
2008-07-15 08:58:29 51°17.784 2°52.18 9.2 250 17.2 102550 84
2008-07-15 08:58:35 51°17.799 2°52.166 10.8 247 17.2 102550 84
2008-07-15 08:58:39 51°17.809 2°52.157 11.2 285 17.2 102550 84
2008-07-15 08:58:44 51°17.822 2°52.145 11.7 243 17.2 102550 84
2008-07-15 08:58:49 51°17.835 2°52.134 10.8 278 17.2 102540 84
2008-07-15 08:58:55 51°17.85 2°52.12 8.1 248 17.2 102540 84
2008-07-15 08:58:59 51°17.86 2°52.112 9.3 279 17.2 102550 84
2008-07-15 08:59:05 51°17.875 2°52.098 12.7 247 17.2 102550 84
2008-07-15 08:59:10 51°17.888 2°52.088 12.2 249 17.2 102550 84
2008-07-15 08:59:14 51°17.898 2°52.079 12.2 248 17.2 102550 84
2008-07-15 08:59:19 51°17.91 2°52.067 9.1 281 17.2 102550 84
2008-07-15 08:59:25 51°17.925 2°52.055 9.9 246 17.2 102550 84
2008-07-15 08:59:29 51°17.935 2°52.046 12.1 278 17.2 102550 84
2008-07-15 08:59:34 51°17.948 2°52.035 8.4 246 17.2 102550 84
2008-07-15 08:59:39 51°17.961 2°52.023 11.6 284 17.2 102560 84
2008-07-15 08:59:45 51°17.976 2°52.01 8.7 248 17.2 102560 84
2008-07-15 08:59:50 51°17.988 2°51.998 11.5 249 17.2 102550 84
2008-07-15 08:59:55 51°18.001 2°51.987 8.6 246 17.2 102550 84
2008-07-15 08:59:59 51°18.011 2°51.978 11.4 248 17.2 102550 84
2008-07-15 09:00:05 51°18.026 2°51.964 11 249 17.2 102550 84
2008-07-15 09:00:10 51°18.038 2°51.953 10.7 247 17.2 102550 83
2008-07-15 09:00:14 51°18.048 2°51.944 10.9 245 17.2 102550 83
2008-07-15 09:00:19 51°18.061 2°51.933 10.4 284 17.2 102550 83
2008-07-15 09:00:24 51°18.074 2°51.922 11.2 246 17.2 102550 83
2008-07-15 09:00:30 51°18.089 2°51.909 8.2 278 17.2 102550 84
2008-07-15 09:00:35 51°18.101 2°51.898 9.7 244 17.2 102550 84
2008-07-15 09:00:39 51°18.111 2°51.889 11 281 17.2 102550 83
2008-07-15 09:00:44 51°18.124 2°51.878 10.5 246 17.2 102550 83
2008-07-15 09:00:49 51°18.137 2°51.867 9.2 282 17.2 102550 84
2008-07-15 09:00:55 51°18.152 2°51.853 10.8 248 17.2 102550 84
2008-07-15 09:00:59 51°18.162 2°51.844 8.1 282 17.2 102550 84
2008-07-15 09:01:05 51°18.177 2°51.831 11.3 248 17.2 102550 84
2008-07-15 09:01:10 51°18.189 2°51.82 11.4 250 17.2 102550 84
2008-07-15 09:01:14 51°18.199 2°51.811 8.5 250 17.2 102550 84
2008-07-15 09:01:19 51°18.212 2°51.8 10 285 17.2 102550 84
2008-07-15 09:01:25 51°18.228 2°51.787 9.8 245 17.2 102550 84
2008-07-15 09:01:29 51°18.238 2°51.777 11.2 279 17.2 102550 84
2008-07-15 09:01:34 51°18.251 2°51.766 8.1 250 17.2 102550 84
2008-07-15 09:01:39 51°18.263 2°51.755 8.2 279 17.2 102550 84
2008-07-15 09:01:45 51°18.279 2°51.742 10.3 245 17.2 102550 84
2008-07-15 09:01:50 51°18.291 2°51.731 10.4 22 17.2 102550 84
2008-07-15 09:01:54 51°18.301 2°51.722 8.2 244 17.2 102550 84
2008-07-15 09:01:59 51°18.314 2°51.712 9.2 246 17.2 102550 84
2008-07-15 09:02:05 51°18.329 2°51.698 8.3 249 17.2 102550 84
2008-07-15 09:02:10 51°18.342 2°51.687 11.1 249 17.2 102550 84
2008-07-15 09:02:14 51°18.352 2°51.678 10.7 243 17.2 102550 84
2008-07-15 09:02:19 51°18.365 2°51.668 11.1 284 17.2 102550 84
2008-07-15 09:02:25 51°18.38 2°51.654 8.7 250 17.2 102550 84
2008-07-15 09:02:30 51°18.393 2°51.644 11 277 17.2 102560 84
2008-07-15 09:02:34 51°18.403 2°51.635 11.4 247 17.2 102560 84
2008-07-15 09:02:39 51°18.415 2°51.624 7.1 278 17.2 102540 84
2008-07-15 09:02:44 51°18.428 2°51.613 8.1 248 17.2 102540 84
2008-07-15 09:02:50 51°18.442 2°51.6 10.7 282 17.2 102550 84
2008-07-15 09:02:55 51°18.455 2°51.589 8.8 248 17.2 102550 84
2008-07-15 09:02:59 51°18.465 2°51.58 12 25 17.2 102540 84
2008-07-15 09:03:05 51°18.48 2°51.568 12 248 17.2 102540 84
2008-07-15 09:03:10 51°18.493 2°51.557 12.3 248 17.2 102560 84
2008-07-15 09:03:14 51°18.503 2°51.548 9.3 248 17.2 102560 84
2008-07-15 09:03:19 51°18.516 2°51.537 9.7 285 17.2 102550 84
2008-07-15 09:03:24 51°18.528 2°51.526 8.2 248 17.2 102550 84
2008-07-15 09:03:29 51°18.54 2°51.515 8.9 281 17.2 102550 83
2008-07-15 09:03:34 51°18.552 2°51.504 8.3 245 17.2 102550 83
2008-07-15 09:03:39 51°18.565 2°51.492 10.9 282 17.2 102530 83
2008-07-15 09:03:45 51°18.58 2°51.479 9 247 17.2 102530 83
2008-07-15 09:03:50 51°18.592 2°51.467 11.3 249 17.2 102550 83
2008-07-15 09:03:54 51°18.603 2°51.458 9.9 247 17.2 102550 83
2008-07-15 09:03:59 51°18.615 2°51.447 9.8 283 17.2 102540 83
2008-07-15 09:04:05 51°18.63 2°51.434 11.5 245 17.2 102540 83
2008-07-15 09:04:10 51°18.643 2°51.423 10.4 245 17.2 102540 83
2008-07-15 09:04:14 51°18.653 2°51.414 8.5 247 17.2 102540 83
2008-07-15 09:04:19 51°18.666 2°51.402 10.1 20 17.2 102550 83
2008-07-15 09:04:25 51°18.681 2°51.39 9.4 245 17.2 102550 83
2008-07-15 09:04:30 51°18.693 2°51.379 9 282 17.2 102540 83
2008-07-15 09:04:34 51°18.703 2°51.37 9.9 246 17.2 102540 83
2008-07-15 09:04:39 51°18.716 2°51.358 10.9 280 17.2 102540 83
2008-07-15 09:04:44 51°18.728 2°51.347 11.3 247 17.2 102540 83
2008-07-15 09:04:50 51°18.743 2°51.333 9.4 247 17.2 102540 83
2008-07-15 09:04:55 51°18.756 2°51.322 11.5 248 17.2 102540 83
2008-07-15 09:04:59 51°18.766 2°51.313 8.6 249 17.2 102540 83
2008-07-15 09:05:05 51°18.782 2°51.299 9.2 248 17.2 102540 83
2008-07-15 09:05:10 51°18.794 2°51.287 8.3 247 17.2 102550 83
2008-07-15 09:05:14 51°18.804 2°51.278 8.3 245 17.2 102550 83
2008-07-15 09:05:19 51°18.817 2°51.267 8 279 17.2 102530 83
2008-07-15 09:05:24 51°18.83 2°51.255 8.4 244 17.2 102530 83
2008-07-15 09:05:29 51°18.843 2°51.244 8.1 21 17.2 102540 83
2008-07-15 09:05:35 51°18.858 2°51.231 10.2 246 17.2 102540 83
2008-07-15 09:05:39 51°18.868 2°51.221 10 279 17.2 102540 84
2008-07-15 09:05:45 51°18.884 2°51.208 8.4 246 17.2 102540 84
2008-07-15 09:05:50 51°18.896 2°51.197 11.1 22 17.2 102540 84
2008-07-15 09:05:54 51°18.906 2°51.188 8.4 249 17.2 102540 84
2008-07-15 09:05:59 51°18.919 2°51.177 8.3 279 17.2 102550 84
2008-07-15 09:06:05 51°18.934 2°51.164 10 248 17.2 102550 84
2008-07-15 09:06:10 51°18.947 2°51.154 10.6 249 17.2 102540 84
2008-07-15 09:06:14 51°18.956 2°51.146 8.1 246 17.2 102540 84
2008-07-15 09:06:19 51°18.968 2°51.136 11.2 22 17.2 102540 83
2008-07-15 09:06:25 51°18.983 2°51.124 8.5 249 17.2 102540 83
2008-07-15 09:06:30 51°18.994 2°51.114 11.4 283 17.2 102550 83
2008-07-15 09:06:34 51°19.003 2°51.106 7.8 248 17.2 102550 83
2008-07-15 09:06:39 51°19.014 2°51.097 9.3 278 17.2 102550 84
2008-07-15 09:06:45 51°19.027 2°51.087 7.1 251 17.2 102550 84
2008-07-15 09:06:50 51°19.038 2°51.078 7.3 247 17.2 102540 84
2008-07-15 09:06:54 51°19.047 2°51.072 10.3 249 17.2 102540 84
2008-07-15 09:06:59 51°19.058 2°51.063 7.8 250 17.2 102540 84
2008-07-15 09:07:05 51°19.071 2°51.053 11 253 17.2 102540 84
2008-07-15 09:07:10 51°19.081 2°51.044 8.5 252 17.2 102550 91
2008-07-15 09:07:14 51°19.089 2°51.037 9.3 253 17.2 102550 91
2008-07-15 09:07:19 51°19.1 2°51.028 9.7 284 17.2 102540 91
2008-07-15 09:07:24 51°19.11 2°51.019 9.9 250 17.2 102540 91
2008-07-15 09:07:29 51°19.12 2°51.011 9.7 22 17.2 102550 91
2008-07-15 09:07:35 51°19.132 2°51 8.2 246 17.2 102550 91
2008-07-15 09:07:39 51°19.14 2°50.992 11 251 17.2 102540 91
2008-07-15 09:07:45 51°19.151 2°50.98 7.9 246 17.2 102540 91
2008-07-15 09:07:50 51°19.159 2°50.968 8.4 25 17.2 102530 91
2008-07-15 09:07:55 51°19.167 2°50.957 11.5 242 17.2 102530 91
2008-07-15 09:07:59 51°19.173 2°50.947 12.2 284 17.2 102550 91
2008-07-15 09:08:05 51°19.182 2°50.931 9.9 241 17.2 102550 91
2008-07-15 09:08:10 51°19.188 2°50.918 9.6 25 17.2 102540 91
2008-07-15 09:08:14 51°19.193 2°50.907 10.2 239 17.2 102540 91
2008-07-15 09:08:19 51°19.199 2°50.892 12.1 281 17.3 102540 91
2008-07-15 09:08:25 51°19.205 2°50.875 11.3 234 17.3 102540 91
2008-07-15 09:08:30 51°19.209 2°50.859 9.8 276 17.2 102540 91
2008-07-15 09:08:34 51°19.213 2°50.847 10.1 233 17.2 102540 91
2008-07-15 09:08:39 51°19.218 2°50.831 13.6 281 17.2 102540 91
2008-07-15 09:08:45 51°19.222 2°50.811 11.2 233 17.2 102540 91
2008-07-15 09:08:50 51°19.227 2°50.794 11.4 29 17.2 102530 91
2008-07-15 09:08:54 51°19.23 2°50.781 13.3 234 17.2 102530 91
2008-07-15 09:08:59 51°19.234 2°50.764 13.3 27 17.2 102540 91
2008-07-15 09:09:05 51°19.239 2°50.744 12.2 235 17.2 102540 91
2008-07-15 09:09:10 51°19.243 2°50.727 11.8 27 17.2 102520 91
2008-07-15 09:09:14 51°19.246 2°50.714 10.5 35 17.2 102520 91
2008-07-15 09:09:19 51°19.25 2°50.697 10.8 278 17.2 102520 90
2008-07-15 09:09:24 51°19.253 2°50.68 11 34 17.2 102520 90
2008-07-15 09:09:30 51°19.258 2°50.659 13 281 17.2 102530 90
2008-07-15 09:09:35 51°19.262 2°50.642 13.6 34 17.2 102530 90
2008-07-15 09:09:39 51°19.266 2°50.628 10.7 26 17.2 102530 90
2008-07-15 09:09:45 51°19.27 2°50.607 11 235 17.2 102530 90
2008-07-15 09:09:50 51°19.275 2°50.59 11.1 25 17.2 102520 91
2008-07-15 09:09:54 51°19.278 2°50.576 12.9 32 17.2 102520 91
2008-07-15 09:09:59 51°19.283 2°50.558 12 276 17.2 102530 91
2008-07-15 09:10:05 51°19.288 2°50.537 13.6 233 17.2 102530 91
2008-07-15 09:10:10 51°19.293 2°50.52 10.7 28 17.2 102530 90
2008-07-15 09:10:15 51°19.297 2°50.502 11.2 234 17.2 102530 90
2008-07-15 09:10:19 51°19.301 2°50.488 11.3 284 17.2 102530 90
2008-07-15 09:10:24 51°19.305 2°50.471 12.8 233 17.2 102530 90
2008-07-15 09:10:30 51°19.311 2°50.45 9.6 26 17.2 102520 90
2008-07-15 09:10:34 51°19.315 2°50.436 11.3 230 17.2 102520 90
2008-07-15 09:10:39 51°19.319 2°50.418 13.2 280 17.2 102530 90
2008-07-15 09:10:45 51°19.324 2°50.397 13.8 38 17.2 102530 90
2008-07-15 09:10:50 51°19.328 2°50.379 13.5 29 17.2 102520 90
2008-07-15 09:10:54 51°19.332 2°50.365 10.4 36 17.2 102520 90
2008-07-15 09:10:59 51°19.336 2°50.348 11.6 25 17.2 102540 91
2008-07-15 09:11:05 51°19.342 2°50.327 13 233 17.2 102540 91
2008-07-15 09:11:10 51°19.347 2°50.31 10.8 25 17.2 102530 91
2008-07-15 09:11:14 51°19.351 2°50.296 10.2 33 17.2 102530 91
2008-07-15 09:11:19 51°19.355 2°50.279 12.6 281 17.2 102530 90
2008-07-15 09:11:24 51°19.36 2°50.262 10.3 33 17.2 102530 90
2008-07-15 09:11:30 51°19.366 2°50.242 9.4 284 17.2 102540 90
2008-07-15 09:11:35 51°19.371 2°50.225 11.5 38 17.2 102540 90
2008-07-15 09:11:39 51°19.374 2°50.212 12.8 29 17.2 102540 90
2008-07-15 09:11:44 51°19.379 2°50.195 9.6 36 17.2 102540 90
2008-07-15 09:11:50 51°19.384 2°50.175 11.2 280 17.2 102530 90
2008-07-15 09:11:54 51°19.388 2°50.162 10.8 232 17.2 102530 90
2008-07-15 09:11:59 51°19.393 2°50.145 12.2 278 17.2 102540 91
2008-07-15 09:12:05 51°19.398 2°50.125 12 36 17.2 102540 91
2008-07-15 09:12:10 51°19.403 2°50.108 11.7 23 17.2 102530 91
2008-07-15 09:12:15 51°19.408 2°50.092 10.7 233 17.2 102530 91
2008-07-15 09:12:19 51°19.412 2°50.079 10 278 17.2 102520 90
2008-07-15 09:12:24 51°19.416 2°50.062 12.7 236 17.2 102520 90
2008-07-15 09:12:29 51°19.421 2°50.045 10.1 279 17.2 102530 90
2008-07-15 09:12:35 51°19.426 2°50.025 10.7 235 17.2 102530 90
2008-07-15 09:12:39 51°19.43 2°50.012 11.6 283 17.2 102540 90
2008-07-15 09:12:45 51°19.435 2°49.992 10.4 36 17.2 102540 90
2008-07-15 09:12:50 51°19.44 2°49.975 12.4 20 17.2 102530 90
2008-07-15 09:12:54 51°19.444 2°49.961 12.3 35 17.2 102530 90
2008-07-15 09:12:59 51°19.449 2°49.944 12.4 278 17.2 102520 90
2008-07-15 09:13:05 51°19.455 2°49.923 12.1 37 17.2 102520 90
2008-07-15 09:13:10 51°19.459 2°49.906 11 23 17.2 102540 91
2008-07-15 09:13:14 51°19.463 2°49.892 11.9 235 17.2 102540 91
2008-07-15 09:13:19 51°19.468 2°49.875 12.2 280 17.2 102540 90
2008-07-15 09:13:25 51°19.473 2°49.854 11.8 33 17.2 102540 90
2008-07-15 09:13:30 51°19.478 2°49.836 12.3 24 17.2 102530 90
2008-07-15 09:13:35 51°19.482 2°49.818 9.7 38 17.2 102530 90
2008-07-15 09:13:39 51°19.486 2°49.804 11.2 25 17.2 102530 91
2008-07-15 09:13:45 51°19.491 2°49.783 11.3 39 17.2 102530 91
2008-07-15 09:13:50 51°19.495 2°49.766 12.5 286 17.2 102530 91
2008-07-15 09:13:54 51°19.499 2°49.752 9.9 37 17.2 102530 91
2008-07-15 09:13:59 51°19.503 2°49.734 10.4 278 17.2 102540 91
2008-07-15 09:14:05 51°19.508 2°49.713 11.8 36 17.2 102540 91
2008-07-15 09:14:09 51°19.511 2°49.698 10.7 28 17.2 102530 91
2008-07-15 09:14:15 51°19.516 2°49.678 10 231 17.2 102530 91
2008-07-15 09:14:19 51°19.519 2°49.664 12.2 282 17.2 102530 91
2008-07-15 09:14:24 51°19.523 2°49.647 12.6 40 17.2 102530 91
2008-07-15 09:14:29 51°19.527 2°49.629 10.5 276 17.3 102530 91
2008-07-15 09:14:35 51°19.532 2°49.608 11.3 233 17.3 102530 91
2008-07-15 09:14:39 51°19.535 2°49.595 11.6 277 17.2 102520 91
2008-07-15 09:14:45 51°19.54 2°49.574 10.7 230 17.2 102520 91
2008-07-15 09:14:50 51°19.544 2°49.556 11.3 25 17.2 102520 91
2008-07-15 09:14:55 51°19.549 2°49.539 11.3 32 17.2 102520 91
2008-07-15 09:14:59 51°19.552 2°49.525 10.9 280 17.2 102520 91
2008-07-15 09:15:05 51°19.557 2°49.504 11 39 17.2 102520 91
2008-07-15 09:15:10 51°19.561 2°49.487 10.6 29 17.2 102540 91
2008-07-15 09:15:14 51°19.564 2°49.474 11.9 36 17.2 102540 91
2008-07-15 09:15:19 51°19.569 2°49.456 11.7 281 17.3 102530 91
2008-07-15 09:15:25 51°19.574 2°49.436 12.1 36 17.3 102530 91
2008-07-15 09:15:30 51°19.578 2°49.419 10.7 26 17.3 102540 91
2008-07-15 09:15:35 51°19.582 2°49.401 10.4 232 17.3 102540 91
2008-07-15 09:15:39 51°19.585 2°49.388 11.2 27 17.3 102520 91
2008-07-15 09:15:45 51°19.59 2°49.367 11.1 37 17.3 102520 91
2008-07-15 09:15:50 51°19.594 2°49.35 13.6 284 17.2 102520 91
2008-07-15 09:15:54 51°19.597 2°49.336 13.8 32 17.2 102520 91
2008-07-15 09:15:59 51°19.601 2°49.318 12.5 282 17.3 102520 91
2008-07-15 09:16:05 51°19.605 2°49.297 11.1 232 17.3 102520 91
2008-07-15 09:16:10 51°19.609 2°49.279 13.7 29 17.2 102520 91
2008-07-15 09:16:14 51°19.611 2°49.265 12.8 36 17.2 102520 91
2008-07-15 09:16:19 51°19.615 2°49.246 10.6 276 17.2 102520 90
2008-07-15 09:16:24 51°19.619 2°49.229 10.4 39 17.2 102520 90
2008-07-15 09:16:30 51°19.623 2°49.207 10.5 283 17.2 102530 91
2008-07-15 09:16:35 51°19.626 2°49.189 10 34 17.2 102530 91
2008-07-15 09:16:39 51°19.629 2°49.175 10.8 283 17.2 102530 91
2008-07-15 09:16:45 51°19.634 2°49.153 11.1 35 17.2 102530 91
2008-07-15 09:16:50 51°19.638 2°49.136 11.9 24 17.3 102530 91
2008-07-15 09:16:54 51°19.641 2°49.122 12.4 40 17.3 102530 91
2008-07-15 09:16:59 51°19.644 2°49.105 10 284 17.3 102530 91
2008-07-15 09:17:05 51°19.648 2°49.084 10 36 17.3 102530 91
2008-07-15 09:17:09 51°19.651 2°49.07 12.1 24 17.3 102540 91
2008-07-15 09:17:15 51°19.656 2°49.049 10.9 34 17.3 102540 91
2008-07-15 09:17:19 51°19.659 2°49.035 12.8 286 17.3 102550 91
2008-07-15 09:17:25 51°19.663 2°49.014 12.6 33 17.3 102550 91
2008-07-15 09:17:30 51°19.667 2°48.996 11.2 26 17.3 102540 91
2008-07-15 09:17:34 51°19.669 2°48.982 11 232 17.3 102540 91
2008-07-15 09:17:39 51°19.673 2°48.964 11 282 17.3 102540 91
2008-07-15 09:17:45 51°19.678 2°48.943 10 35 17.3 102540 91
2008-07-15 09:17:50 51°19.681 2°48.926 11 275 17.3 102530 91
2008-07-15 09:17:54 51°19.685 2°48.911 13.1 37 17.3 102530 91
2008-07-15 09:17:59 51°19.688 2°48.894 10.5 284 17.3 102520 91
2008-07-15 09:18:05 51°19.693 2°48.872 11.1 36 17.3 102520 91
2008-07-15 09:18:10 51°19.696 2°48.854 10.7 24 17.3 102520 91
2008-07-15 09:18:14 51°19.699 2°48.84 11.9 36 17.3 102520 91
2008-07-15 09:18:19 51°19.703 2°48.822 14 284 17.3 102530 91
2008-07-15 09:18:24 51°19.707 2°48.804 10.6 38 17.3 102530 91
2008-07-15 09:18:30 51°19.711 2°48.783 12.6 279 17.2 102540 91
2008-07-15 09:18:35 51°19.715 2°48.765 10.5 37 17.2 102540 91
2008-07-15 09:18:39 51°19.718 2°48.751 10.4 24 17.2 102540 91
2008-07-15 09:18:45 51°19.722 2°48.73 12.2 37 17.2 102540 91
2008-07-15 09:18:50 51°19.726 2°48.713 10.8 283 17.2 102530 91
2008-07-15 09:18:54 51°19.729 2°48.699 13 34 17.2 102530 91
2008-07-15 09:18:59 51°19.733 2°48.681 12.4 284 17.2 102530 91
2008-07-15 09:19:05 51°19.737 2°48.66 11.7 31 17.2 102530 91
2008-07-15 09:19:09 51°19.74 2°48.645 10.2 24 17.2 102540 91
2008-07-15 09:19:15 51°19.744 2°48.624 11.8 33 17.2 102540 91
2008-07-15 09:19:19 51°19.747 2°48.61 12.2 278 17.2 102540 91
2008-07-15 09:19:25 51°19.752 2°48.588 12 36 17.2 102540 91
2008-07-15 09:19:30 51°19.755 2°48.57 11.7 24 17.2 102530 91
2008-07-15 09:19:34 51°19.758 2°48.555 12.8 230 17.2 102530 91
2008-07-15 09:19:39 51°19.762 2°48.538 12.4 284 17.3 102540 91
2008-07-15 09:19:45 51°19.767 2°48.516 11.6 37 17.3 102540 91
2008-07-15 09:19:49 51°19.77 2°48.502 10.9 277 17.2 102530 91
2008-07-15 09:19:54 51°19.773 2°48.484 10.5 232 17.2 102530 91
2008-07-15 09:19:59 51°19.777 2°48.466 13.4 281 17.2 102530 91
2008-07-15 09:20:05 51°19.782 2°48.444 13.2 36 17.2 102530 91
2008-07-15 09:20:10 51°19.786 2°48.426 11.5 23 17.2 102530 91
2008-07-15 09:20:14 51°19.789 2°48.412 10.5 37 17.2 102530 91
2008-07-15 09:20:19 51°19.793 2°48.394 12.1 280 17.2 102530 91
2008-07-15 09:20:24 51°19.797 2°48.375 11 36 17.2 102530 91
2008-07-15 09:20:30 51°19.801 2°48.354 13 26 17.2 102530 91
2008-07-15 09:20:35 51°19.805 2°48.336 13.2 33 17.2 102530 91
2008-07-15 09:20:39 51°19.808 2°48.322 12.4 22 17.2 102530 91
2008-07-15 09:20:45 51°19.813 2°48.301 12.4 36 17.2 102530 91
2008-07-15 09:20:50 51°19.817 2°48.283 12.7 280 17.2 102540 91
2008-07-15 09:20:54 51°19.82 2°48.268 13.5 232 17.2 102540 91
2008-07-15 09:20:59 51°19.824 2°48.251 11 278 17.2 102530 91
2008-07-15 09:21:04 51°19.828 2°48.233 11.2 34 17.2 102530 91
2008-07-15 09:21:10 51°19.833 2°48.212 13.4 24 17.2 102530 91
2008-07-15 09:21:15 51°19.837 2°48.194 13.7 37 17.2 102530 91
2008-07-15 09:21:19 51°19.84 2°48.18 11.7 277 17.2 102530 91
2008-07-15 09:21:24 51°19.844 2°48.162 13.2 231 17.2 102530 91
2008-07-15 09:21:30 51°19.848 2°48.14 11.8 26 17.2 102530 91
2008-07-15 09:21:35 51°19.852 2°48.122 12 33 17.2 102530 91
2008-07-15 09:21:39 51°19.855 2°48.108 13.7 283 17.2 102530 91
2008-07-15 09:21:45 51°19.86 2°48.086 14.2 35 17.2 102530 91
2008-07-15 09:21:50 51°19.863 2°48.068 12.5 22 17.2 102540 91
2008-07-15 09:21:54 51°19.866 2°48.054 13.2 33 17.2 102540 91
2008-07-15 09:21:59 51°19.87 2°48.036 10.6 284 17.2 102530 90
2008-07-15 09:22:05 51°19.875 2°48.014 10.3 34 17.2 102530 90
2008-07-15 09:22:10 51°19.879 2°47.997 10.1 26 17.2 102530 90
2008-07-15 09:22:14 51°19.882 2°47.983 12.5 234 17.2 102530 90
2008-07-15 09:22:19 51°19.886 2°47.965 10.6 280 17.2 102540 90
2008-07-15 09:22:25 51°19.891 2°47.944 9.7 231 17.2 102540 90
2008-07-15 09:22:30 51°19.895 2°47.927 9.9 27 17.2 102540 91
2008-07-15 09:22:35 51°19.899 2°47.909 10.7 34 17.2 102540 91
2008-07-15 09:22:39 51°19.902 2°47.895 10.5 26 17.2 102530 91
2008-07-15 09:22:45 51°19.907 2°47.874 9.9 36 17.2 102530 91
2008-07-15 09:22:50 51°19.911 2°47.856 13.4 284 17.2 102540 91
2008-07-15 09:22:54 51°19.914 2°47.842 13.6 38 17.2 102540 91
2008-07-15 09:22:59 51°19.917 2°47.824 13.3 277 17.2 102530 91
2008-07-15 09:23:05 51°19.923 2°47.802 12.6 39 17.2 102530 91
2008-07-15 09:23:10 51°19.926 2°47.785 13.1 28 17.3 102530 91
2008-07-15 09:23:15 51°19.931 2°47.767 10.5 34 17.3 102530 91
2008-07-15 09:23:19 51°19.934 2°47.753 12.6 283 17.2 102540 91
2008-07-15 09:23:24 51°19.938 2°47.736 10.4 37 17.2 102540 91
2008-07-15 09:23:30 51°19.943 2°47.714 11.5 277 17.2 102540 91
2008-07-15 09:23:35 51°19.947 2°47.697 13.7 37 17.2 102540 91
2008-07-15 09:23:39 51°19.95 2°47.683 12.7 282 17.3 102530 91
2008-07-15 09:23:45 51°19.955 2°47.662 10 37 17.3 102530 91
2008-07-15 09:23:50 51°19.959 2°47.644 12 20 17.3 102530 91
2008-07-15 09:23:55 51°19.963 2°47.626 11.3 40 17.3 102530 91
2008-07-15 09:23:59 51°19.966 2°47.612 10.9 278 17.2 102540 91
2008-07-15 09:24:05 51°19.97 2°47.591 12.6 35 17.2 102540 91
2008-07-15 09:24:10 51°19.973 2°47.573 12.4 21 17.2 102540 91
2008-07-15 09:24:14 51°19.976 2°47.558 12.8 35 17.2 102540 91
2008-07-15 09:24:19 51°19.979 2°47.54 12.2 281 17.2 102530 91
2008-07-15 09:24:25 51°19.983 2°47.519 11.6 39 17.2 102530 91
2008-07-15 09:24:30 51°19.986 2°47.501 12.5 28 17.2 102530 90
2008-07-15 09:24:35 51°19.989 2°47.484 11.3 36 17.2 102530 90
2008-07-15 09:24:40 51°19.992 2°47.466 10.4 280 17.2 102530 91
2008-07-15 09:24:45 51°19.995 2°47.448 11.5 40 17.2 102530 91
2008-07-15 09:24:50 51°19.997 2°47.43 10.1 282 17.2 102540 91
2008-07-15 09:24:54 51°19.998 2°47.416 11.3 315 17.2 102540 91
2008-07-15 09:24:59 51°20 2°47.398 11.1 279 17.2 102540 91
2008-07-15 09:25:05 51°20.002 2°47.377 12.7 40 17.2 102540 91
2008-07-15 09:25:10 51°20.003 2°47.359 10.6 316 17.2 102540 91
2008-07-15 09:25:15 51°20.004 2°47.341 11 317 17.2 102540 91
2008-07-15 09:25:19 51°20.004 2°47.327 11.8 281 17.3 102550 91
2008-07-15 09:25:24 51°20.005 2°47.309 13 316 17.3 102550 91
2008-07-15 09:25:30 51°20.007 2°47.287 12.5 276 17.3 102540 91
2008-07-15 09:25:35 51°20.008 2°47.269 13.3 38 17.3 102540 91
2008-07-15 09:25:39 51°20.009 2°47.254 12.8 278 17.2 102550 91
2008-07-15 09:25:45 51°20.011 2°47.232 12.7 39 17.2 102550 91
2008-07-15 09:25:50 51°20.012 2°47.214 12.7 315 17.2 102540 91
2008-07-15 09:25:54 51°20.013 2°47.2 12 318 17.2 102540 91
2008-07-15 09:25:59 51°20.015 2°47.181 13.3 278 17.3 102550 91
2008-07-15 09:26:05 51°20.017 2°47.159 12.7 36 17.3 102550 91
2008-07-15 09:26:09 51°20.019 2°47.145 13.4 23 17.3 102540 91
2008-07-15 09:26:15 51°20.02 2°47.123 11.3 317 17.3 102540 91
2008-07-15 09:26:19 51°20.022 2°47.108 12.6 280 17.3 102530 91
2008-07-15 09:26:25 51°20.024 2°47.087 12 316 17.3 102530 91
2008-07-15 09:26:30 51°20.025 2°47.068 12.4 316 17.2 102530 91
2008-07-15 09:26:34 51°20.026 2°47.054 11.9 315 17.2 102530 91
2008-07-15 09:26:39 51°20.028 2°47.035 12.2 317 17.2 102540 91
2008-07-15 09:26:45 51°20.03 2°47.013 13.7 317 17.2 102540 91
2008-07-15 09:26:50 51°20.032 2°46.995 13.3 280 17.2 102550 91
2008-07-15 09:26:54 51°20.034 2°46.98 12.2 315 17.2 102550 91
2008-07-15 09:26:59 51°20.035 2°46.962 12.7 280 17.2 102540 91
2008-07-15 09:27:05 51°20.037 2°46.939 11.7 316 17.2 102540 91
2008-07-15 09:27:10 51°20.039 2°46.921 13.3 317 17.2 102540 91
2008-07-15 09:27:14 51°20.04 2°46.906 13.8 316 17.2 102540 91
2008-07-15 09:27:19 51°20.042 2°46.888 14.6 285 17.2 102530 90
2008-07-15 09:27:25 51°20.045 2°46.866 13.8 316 17.2 102530 90
2008-07-15 09:27:30 51°20.046 2°46.847 13.7 284 17.2 102540 91
2008-07-15 09:27:35 51°20.048 2°46.829 12.9 38 17.2 102540 91
2008-07-15 09:27:39 51°20.05 2°46.814 13.3 280 17.2 102540 91
2008-07-15 09:27:45 51°20.052 2°46.792 12.3 317 17.2 102540 91
2008-07-15 09:27:50 51°20.054 2°46.774 12.8 276 17.2 102540 90
2008-07-15 09:27:54 51°20.055 2°46.759 14 319 17.2 102540 90
2008-07-15 09:27:59 51°20.057 2°46.741 12.6 276 17.2 102540 90
2008-07-15 09:28:05 51°20.059 2°46.719 12.8 316 17.2 102540 90
2008-07-15 09:28:09 51°20.06 2°46.705 12.9 315 17.2 102530 90
2008-07-15 09:28:15 51°20.062 2°46.682 13.8 36 17.2 102530 90
2008-07-15 09:28:19 51°20.064 2°46.668 13.2 276 17.2 102540 90
2008-07-15 09:28:25 51°20.066 2°46.646 12.6 35 17.2 102540 90
2008-07-15 09:28:30 51°20.068 2°46.628 12.9 22 17.2 102540 90
2008-07-15 09:28:35 51°20.071 2°46.611 12.5 316 17.2 102540 90
2008-07-15 09:28:39 51°20.072 2°46.596 13.1 283 17.2 102530 90
2008-07-15 09:28:45 51°20.075 2°46.575 13.1 33 17.2 102530 90
2008-07-15 09:28:49 51°20.076 2°46.561 10.5 285 17.2 102530 90
2008-07-15 09:28:54 51°20.078 2°46.543 12.5 317 17.2 102530 90
2008-07-15 09:28:59 51°20.079 2°46.525 13.5 281 17.2 102540 90
2008-07-15 09:29:05 51°20.082 2°46.503 13.5 40 17.2 102540 90
2008-07-15 09:29:10 51°20.083 2°46.485 12.1 24 17.2 102540 87
2008-07-15 09:29:14 51°20.084 2°46.47 12.1 315 17.2 102540 87
2008-07-15 09:29:19 51°20.086 2°46.452 11.6 280 17.2 102550 87
2008-07-15 09:29:25 51°20.089 2°46.43 13.7 316 17.2 102550 87
2008-07-15 09:29:30 51°20.091 2°46.412 12.6 283 17.2 102540 87
2008-07-15 09:29:35 51°20.092 2°46.394 13 36 17.2 102540 87
2008-07-15 09:29:39 51°20.094 2°46.38 12.4 315 17.2 102540 87
2008-07-15 09:29:45 51°20.095 2°46.359 11.9 317 17.2 102540 87
2008-07-15 09:29:50 51°20.097 2°46.341 12.9 280 17.2 102550 87
2008-07-15 09:29:54 51°20.099 2°46.327 12.9 317 17.2 102550 87
2008-07-15 09:29:59 51°20.1 2°46.309 13.5 280 17.2 102530 87
2008-07-15 09:30:04 51°20.102 2°46.291 13.3 316 17.2 102530 87
2008-07-15 09:30:09 51°20.103 2°46.273 11.6 317 17.2 102530 87
2008-07-15 09:30:15 51°20.105 2°46.252 13.3 38 17.2 102530 87
2008-07-15 09:30:19 51°20.107 2°46.238 12.9 284 17.2 102540 87
2008-07-15 09:30:25 51°20.109 2°46.217 11.6 38 17.2 102540 87
2008-07-15 09:30:30 51°20.11 2°46.199 12.5 25 17.2 102530 87
2008-07-15 09:30:35 51°20.112 2°46.181 13.3 39 17.2 102530 87
2008-07-15 09:30:39 51°20.113 2°46.166 11.2 284 17.2 102530 87
2008-07-15 09:30:45 51°20.115 2°46.145 11.4 316 17.2 102530 87
2008-07-15 09:30:49 51°20.117 2°46.13 12.2 283 17.2 102530 86
2008-07-15 09:30:54 51°20.119 2°46.112 13.2 317 17.2 102530 86
2008-07-15 09:30:59 51°20.121 2°46.094 12 281 17.2 102530 86
2008-07-15 09:31:05 51°20.123 2°46.071 12.8 32 17.2 102530 86
2008-07-15 09:31:10 51°20.124 2°46.053 11.5 24 17.2 102540 87
2008-07-15 09:31:14 51°20.126 2°46.038 12.1 316 17.2 102540 87
2008-07-15 09:31:19 51°20.128 2°46.019 13.6 285 17.3 102530 88
2008-07-15 09:31:25 51°20.13 2°45.997 13.3 315 17.3 102530 88
2008-07-15 09:31:30 51°20.132 2°45.979 13.4 316 17.3 102530 88
2008-07-15 09:31:34 51°20.134 2°45.964 11.7 39 17.3 102530 88
2008-07-15 09:31:39 51°20.136 2°45.945 13.6 317 17.3 102540 91
2008-07-15 09:31:45 51°20.138 2°45.923 14.3 315 17.3 102540 91
2008-07-15 09:31:50 51°20.14 2°45.905 12.9 280 17.3 102530 91
2008-07-15 09:31:54 51°20.142 2°45.891 11.7 315 17.3 102530 91
2008-07-15 09:31:59 51°20.144 2°45.872 12.1 286 17.2 102530 87
2008-07-15 09:32:04 51°20.145 2°45.854 13.5 316 17.2 102530 87
2008-07-15 09:32:10 51°20.148 2°45.832 12.3 27 17.2 102520 87
2008-07-15 09:32:15 51°20.15 2°45.813 12.8 316 17.2 102520 87
2008-07-15 09:32:19 51°20.151 2°45.799 13.4 283 17.2 102530 87
2008-07-15 09:32:25 51°20.154 2°45.777 12.4 316 17.2 102530 87
2008-07-15 09:32:30 51°20.156 2°45.758 11.6 279 17.3 102530 87
2008-07-15 09:32:35 51°20.157 2°45.739 10.7 317 17.3 102530 87
2008-07-15 09:32:39 51°20.159 2°45.725 12.3 279 17.2 102530 87
2008-07-15 09:32:45 51°20.161 2°45.702 13.5 316 17.2 102530 87
2008-07-15 09:32:50 51°20.163 2°45.684 13.1 24 17.2 102540 86
2008-07-15 09:32:55 51°20.166 2°45.665 12.5 316 17.2 102540 86
2008-07-15 09:32:59 51°20.168 2°45.651 14.5 283 17.3 102540 87
2008-07-15 09:33:05 51°20.17 2°45.629 12.9 316 17.3 102540 87
2008-07-15 09:33:10 51°20.172 2°45.61 14.1 316 17.3 102530 87
2008-07-15 09:33:14 51°20.174 2°45.596 12.7 317 17.3 102530 87
2008-07-15 09:33:19 51°20.176 2°45.577 13.3 280 17.2 102530 87
2008-07-15 09:33:25 51°20.178 2°45.555 13.3 317 17.2 102530 87
2008-07-15 09:33:30 51°20.181 2°45.537 13.1 316 17.2 102530 86
2008-07-15 09:33:34 51°20.182 2°45.522 14.8 316 17.2 102530 86
2008-07-15 09:33:39 51°20.184 2°45.503 14.4 26 17.2 102520 86
2008-07-15 09:33:45 51°20.187 2°45.48 13.9 34 17.2 102520 86
2008-07-15 09:33:50 51°20.189 2°45.461 14 285 17.2 102520 86
2008-07-15 09:33:54 51°20.191 2°45.446 12.4 315 17.2 102520 86
2008-07-15 09:33:59 51°20.193 2°45.427 13.5 282 17.2 102530 86
2008-07-15 09:34:05 51°20.196 2°45.404 13.7 318 17.2 102530 86
2008-07-15 09:34:10 51°20.198 2°45.385 13.2 317 17.2 102530 86
2008-07-15 09:34:15 51°20.2 2°45.366 12.4 316 17.2 102530 86
2008-07-15 09:34:19 51°20.201 2°45.351 14.5 28 17.2 102530 86
2008-07-15 09:34:24 51°20.203 2°45.332 12.4 318 17.2 102530 86
2008-07-15 09:34:30 51°20.205 2°45.309 12 279 17.2 102530 86
2008-07-15 09:34:34 51°20.205 2°45.294 11.5 318 17.2 102530 86
2008-07-15 09:34:39 51°20.207 2°45.275 12.3 282 17.2 102530 86
2008-07-15 09:34:45 51°20.208 2°45.252 14.1 317 17.2 102530 86
2008-07-15 09:34:50 51°20.209 2°45.233 13.1 283 17.2 102520 86
2008-07-15 09:34:55 51°20.21 2°45.213 11.9 317 17.2 102520 86
2008-07-15 09:34:59 51°20.211 2°45.198 12.3 280 17.2 102530 86
2008-07-15 09:35:04 51°20.212 2°45.179 12.1 317 17.2 102530 86
2008-07-15 09:35:10 51°20.214 2°45.155 13.2 316 17.2 102530 86
2008-07-15 09:35:15 51°20.215 2°45.136 12.6 317 17.2 102530 86
2008-07-15 09:35:19 51°20.216 2°45.121 12.6 281 17.3 102530 86
2008-07-15 09:35:25 51°20.218 2°45.098 13.1 317 17.3 102530 86
2008-07-15 09:35:30 51°20.22 2°45.078 11.7 317 17.3 102530 86
2008-07-15 09:35:34 51°20.221 2°45.063 14.9 317 17.3 102530 86
2008-07-15 09:35:39 51°20.223 2°45.044 11.7 281 17.3 102540 86
2008-07-15 09:35:45 51°20.224 2°45.021 12 316 17.3 102540 86
2008-07-15 09:35:49 51°20.226 2°45.006 12 277 17.3 102540 86
2008-07-15 09:35:54 51°20.227 2°44.987 13.5 316 17.3 102540 86
2008-07-15 09:35:59 51°20.229 2°44.967 14.2 284 17.3 102530 86
2008-07-15 09:36:05 51°20.231 2°44.944 13.1 315 17.3 102530 86
2008-07-15 09:36:10 51°20.232 2°44.925 14 316 17.3 102530 86
2008-07-15 09:36:15 51°20.233 2°44.906 14.5 315 17.3 102530 86
2008-07-15 09:36:19 51°20.234 2°44.89 12.4 25 17.3 102530 86
2008-07-15 09:36:25 51°20.236 2°44.867 11.7 316 17.3 102530 86
2008-07-15 09:36:30 51°20.238 2°44.848 11.4 280 17.3 102530 86
2008-07-15 09:36:34 51°20.239 2°44.833 11.9 317 17.3 102530 86
2008-07-15 09:36:39 51°20.24 2°44.814 12.2 276 17.2 102530 86
2008-07-15 09:36:45 51°20.242 2°44.791 12.5 318 17.2 102530 86
2008-07-15 09:36:50 51°20.244 2°44.772 11.5 285 17.2 102530 86
2008-07-15 09:36:55 51°20.245 2°44.753 13.6 315 17.2 102530 86
2008-07-15 09:36:59 51°20.246 2°44.738 11.6 282 17.3 102530 86
2008-07-15 09:37:04 51°20.248 2°44.719 12.4 319 17.3 102530 86
2008-07-15 09:37:10 51°20.25 2°44.696 10.8 317 17.3 102540 87
2008-07-15 09:37:15 51°20.251 2°44.677 12 36 17.3 102540 87
2008-07-15 09:37:19 51°20.253 2°44.661 11.7 285 17.3 102530 86
2008-07-15 09:37:25 51°20.255 2°44.639 12.9 317 17.3 102530 86
2008-07-15 09:37:30 51°20.256 2°44.619 13.4 316 17.3 102530 87
2008-07-15 09:37:35 51°20.258 2°44.6 12.5 317 17.3 102530 87
2008-07-15 09:37:39 51°20.259 2°44.585 12.3 283 17.3 102540 87
2008-07-15 09:37:45 51°20.261 2°44.562 14.5 317 17.3 102540 87
2008-07-15 09:37:49 51°20.262 2°44.546 13.1 279 17.3 102530 87
2008-07-15 09:37:54 51°20.264 2°44.527 11.9 317 17.3 102530 87
2008-07-15 09:37:59 51°20.266 2°44.508 12 280 17.3 102530 90
2008-07-15 09:38:05 51°20.268 2°44.485 12.1 316 17.3 102530 90
2008-07-15 09:38:10 51°20.27 2°44.466 13.1 23 17.3 102530 90
2008-07-15 09:38:15 51°20.272 2°44.447 12.6 316 17.3 102530 90
2008-07-15 09:38:19 51°20.273 2°44.432 12.5 317 17.3 102540 90
2008-07-15 09:38:25 51°20.275 2°44.409 14.1 35 17.3 102540 90
2008-07-15 09:38:30 51°20.277 2°44.39 13.8 276 17.2 102530 90
2008-07-15 09:38:34 51°20.278 2°44.375 13.7 41 17.2 102530 90
2008-07-15 09:38:39 51°20.28 2°44.356 13.5 285 17.3 102530 91
2008-07-15 09:38:45 51°20.283 2°44.334 12.7 315 17.3 102530 91
2008-07-15 09:38:50 51°20.284 2°44.315 13.2 280 17.2 102530 91
2008-07-15 09:38:55 51°20.286 2°44.296 10.9 317 17.2 102530 91
2008-07-15 09:38:59 51°20.288 2°44.281 11.4 279 17.2 102530 91
2008-07-15 09:39:04 51°20.289 2°44.262 11.6 40 17.2 102530 91
2008-07-15 09:39:10 51°20.291 2°44.24 13.4 317 17.3 102520 91
2008-07-15 09:39:15 51°20.293 2°44.22 12 317 17.3 102520 91
2008-07-15 09:39:19 51°20.295 2°44.205 11.1 285 17.3 102520 91
2008-07-15 09:39:25 51°20.297 2°44.182 13.4 318 17.3 102520 91
2008-07-15 09:39:30 51°20.298 2°44.163 12.1 316 17.3 102530 91
2008-07-15 09:39:34 51°20.3 2°44.148 13.3 316 17.3 102530 91
2008-07-15 09:39:39 51°20.302 2°44.129 12.8 280 17.2 102530 91
2008-07-15 09:39:45 51°20.304 2°44.107 12.6 316 17.2 102530 91
2008-07-15 09:39:49 51°20.305 2°44.091 13.8 276 17.2 102530 91
2008-07-15 09:39:55 51°20.307 2°44.069 12.7 315 17.2 102530 91
2008-07-15 09:39:59 51°20.308 2°44.053 12.3 276 17.2 102530 91
2008-07-15 09:40:05 51°20.31 2°44.031 10.8 316 17.2 102530 91
2008-07-15 09:40:10 51°20.312 2°44.011 11.2 318 17.2 102530 91
2008-07-15 09:40:14 51°20.313 2°43.996 13.6 318 17.2 102530 91
2008-07-15 09:40:20 51°20.315 2°43.973 11 276 17.2 102530 91
2008-07-15 09:40:25 51°20.316 2°43.954 12 318 17.2 102530 91
2008-07-15 09:40:30 51°20.318 2°43.935 12 278 17.2 102530 91
2008-07-15 09:40:34 51°20.319 2°43.92 13.8 318 17.2 102530 91
2008-07-15 09:40:39 51°20.32 2°43.9 13.2 282 17.2 102540 91
2008-07-15 09:40:45 51°20.322 2°43.877 11.3 316 17.2 102540 91
2008-07-15 09:40:50 51°20.323 2°43.858 14.4 285 17.3 102530 91
2008-07-15 09:40:54 51°20.325 2°43.843 13.2 32 17.3 102530 91
2008-07-15 09:40:59 51°20.326 2°43.824 12.7 283 17.3 102530 91
2008-07-15 09:41:05 51°20.328 2°43.802 13.7 315 17.3 102530 91
2008-07-15 09:41:10 51°20.33 2°43.783 12.1 316 17.2 102530 91
2008-07-15 09:41:15 51°20.331 2°43.764 14.4 37 17.2 102530 91
2008-07-15 09:41:19 51°20.333 2°43.749 13.1 277 17.2 102520 91
2008-07-15 09:41:25 51°20.335 2°43.726 12 318 17.2 102520 91
2008-07-15 09:41:30 51°20.336 2°43.708 13.4 281 17.2 102520 91
2008-07-15 09:41:34 51°20.337 2°43.692 11.5 316 17.2 102520 91
2008-07-15 09:41:39 51°20.339 2°43.674 12.6 278 17.2 102530 91
2008-07-15 09:41:45 51°20.341 2°43.651 14.5 316 17.2 102530 91
2008-07-15 09:41:49 51°20.342 2°43.636 12.6 280 17.2 102530 91
2008-07-15 09:41:55 51°20.344 2°43.614 13.3 34 17.2 102530 91
2008-07-15 09:41:59 51°20.345 2°43.599 12.6 285 17.2 102520 91
2008-07-15 09:42:05 51°20.346 2°43.576 13 315 17.2 102520 91
2008-07-15 09:42:10 51°20.348 2°43.557 13.9 26 17.2 102520 91
2008-07-15 09:42:14 51°20.35 2°43.543 13.8 39 17.2 102520 91
2008-07-15 09:42:19 51°20.351 2°43.524 14.3 283 17.2 102530 91
2008-07-15 09:42:25 51°20.353 2°43.502 12 316 17.2 102530 91
2008-07-15 09:42:30 51°20.355 2°43.484 12.1 277 17.2 102520 91
2008-07-15 09:42:34 51°20.357 2°43.469 12.2 38 17.2 102520 91
2008-07-15 09:42:39 51°20.358 2°43.45 11.6 282 17.2 102530 91
2008-07-15 09:42:45 51°20.36 2°43.428 13 316 17.2 102530 91
2008-07-15 09:42:50 51°20.362 2°43.409 12.3 281 17.2 102530 91
2008-07-15 09:42:54 51°20.363 2°43.394 12.2 315 17.2 102530 91
2008-07-15 09:42:59 51°20.365 2°43.375 13.5 278 17.2 102530 91
2008-07-15 09:43:05 51°20.367 2°43.352 14.2 39 17.2 102530 91
2008-07-15 09:43:10 51°20.368 2°43.334 12.8 28 17.2 102540 91
2008-07-15 09:43:15 51°20.37 2°43.315 13.4 38 17.2 102540 91
2008-07-15 09:43:19 51°20.371 2°43.3 12.3 280 17.2 102520 91
2008-07-15 09:43:25 51°20.373 2°43.277 14.4 38 17.2 102520 91
2008-07-15 09:43:30 51°20.375 2°43.258 13.6 280 17.1 102520 91
2008-07-15 09:43:34 51°20.376 2°43.243 14.2 39 17.1 102520 91
2008-07-15 09:43:39 51°20.378 2°43.224 12.9 281 17.2 102520 91
2008-07-15 09:43:45 51°20.379 2°43.201 12.1 315 17.2 102520 91
2008-07-15 09:43:50 51°20.38 2°43.182 12.8 281 17.2 102530 91
2008-07-15 09:43:55 51°20.382 2°43.163 12.3 317 17.2 102530 91
2008-07-15 09:43:59 51°20.383 2°43.148 12.4 285 17.2 102510 91
2008-07-15 09:44:05 51°20.385 2°43.125 13.7 315 17.2 102510 91
2008-07-15 09:44:10 51°20.386 2°43.106 12.9 26 17.2 102530 91
2008-07-15 09:44:15 51°20.387 2°43.087 13.6 318 17.2 102530 91
2008-07-15 09:44:19 51°20.388 2°43.072 12.9 280 17.2 102530 91
2008-07-15 09:44:25 51°20.389 2°43.049 12.4 318 17.2 102530 91
2008-07-15 09:44:29 51°20.39 2°43.034 12.3 280 17.2 102520 91
2008-07-15 09:44:34 51°20.392 2°43.015 12.1 40 17.2 102520 91
2008-07-15 09:44:39 51°20.393 2°42.997 12.5 284 17.2 102530 91
2008-07-15 09:44:45 51°20.395 2°42.974 11.6 316 17.2 102530 91
2008-07-15 09:44:50 51°20.396 2°42.956 14.7 280 17.2 102530 91
2008-07-15 09:44:54 51°20.397 2°42.941 12.5 317 17.2 102530 91
2008-07-15 09:44:59 51°20.399 2°42.922 12.1 279 17.2 102530 91
2008-07-15 09:45:05 51°20.4 2°42.9 14.3 318 17.2 102530 91
2008-07-15 09:45:10 51°20.401 2°42.881 12.7 317 17.2 102520 91
2008-07-15 09:45:15 51°20.403 2°42.862 13.7 317 17.2 102520 91
2008-07-15 09:45:19 51°20.404 2°42.847 14.5 280 17.2 102520 91
2008-07-15 09:45:25 51°20.405 2°42.825 12.6 316 17.2 102520 91
2008-07-15 09:45:30 51°20.406 2°42.806 12.3 281 17.2 102520 91
2008-07-15 09:45:34 51°20.407 2°42.791 12.1 317 17.2 102520 91
2008-07-15 09:45:39 51°20.408 2°42.772 13.4 285 17.2 102530 91
2008-07-15 09:45:44 51°20.408 2°42.753 13.7 317 17.2 102530 91
2008-07-15 09:45:50 51°20.409 2°42.731 14 284 17.2 102520 91
2008-07-15 09:45:55 51°20.41 2°42.711 12.7 319 17.2 102520 91
2008-07-15 09:45:59 51°20.411 2°42.696 13.7 276 17.2 102530 91
2008-07-15 09:46:05 51°20.412 2°42.674 12.1 319 17.2 102530 91
2008-07-15 09:46:10 51°20.412 2°42.654 11.2 316 17.2 102520 91
2008-07-15 09:46:15 51°20.413 2°42.635 13.7 316 17.2 102520 91
2008-07-15 09:46:19 51°20.414 2°42.62 11.8 285 17.2 102520 91
2008-07-15 09:46:25 51°20.415 2°42.597 13.4 318 17.2 102520 91
2008-07-15 09:46:29 51°20.416 2°42.582 14.2 281 17.2 102520 91
2008-07-15 09:46:35 51°20.417 2°42.559 13.5 34 17.2 102520 91
2008-07-15 09:46:39 51°20.418 2°42.543 13 279 17.2 102530 91
2008-07-15 09:46:45 51°20.418 2°42.52 14.2 318 17.2 102530 91
2008-07-15 09:46:50 51°20.42 2°42.501 13.5 280 17.2 102520 92
2008-07-15 09:46:54 51°20.42 2°42.486 15.1 317 17.2 102520 92
2008-07-15 09:46:59 51°20.421 2°42.467 14.4 283 17.2 102530 92
2008-07-15 09:47:05 51°20.422 2°42.444 13.1 318 17.2 102530 92
2008-07-15 09:47:10 51°20.423 2°42.425 14.5 317 17.2 102520 92
2008-07-15 09:47:15 51°20.424 2°42.406 13.4 317 17.2 102520 92
2008-07-15 09:47:19 51°20.424 2°42.391 14 285 17.1 102520 92
2008-07-15 09:47:25 51°20.426 2°42.368 14.5 317 17.1 102520 92
2008-07-15 09:47:30 51°20.427 2°42.349 13.2 280 17.2 102530 91
2008-07-15 09:47:34 51°20.428 2°42.334 14.3 317 17.2 102530 91
2008-07-15 09:47:39 51°20.429 2°42.316 14.9 279 17.1 102520 91
2008-07-15 09:47:44 51°20.43 2°42.297 14.7 316 17.1 102520 91
2008-07-15 09:47:50 51°20.431 2°42.275 12.6 281 17.1 102520 91
2008-07-15 09:47:55 51°20.431 2°42.256 13.8 318 17.1 102520 91
2008-07-15 09:47:59 51°20.432 2°42.241 15.2 277 17.1 102510 91
2008-07-15 09:48:05 51°20.433 2°42.219 13.7 322 17.1 102510 91
2008-07-15 09:48:10 51°20.434 2°42.2 12.8 317 17.1 102520 92
2008-07-15 09:48:15 51°20.435 2°42.182 13.6 317 17.1 102520 92
2008-07-15 09:48:19 51°20.435 2°42.167 13.9 283 17.1 102530 92
2008-07-15 09:48:25 51°20.436 2°42.145 13.7 319 17.1 102530 92
2008-07-15 09:48:30 51°20.437 2°42.126 12.3 317 17.1 102520 92
2008-07-15 09:48:35 51°20.438 2°42.108 14.2 317 17.1 102520 92
2008-07-15 09:48:39 51°20.439 2°42.094 15.4 279 17.1 102520 92
2008-07-15 09:48:44 51°20.44 2°42.076 15.5 320 17.1 102520 92
2008-07-15 09:48:50 51°20.442 2°42.054 15.3 283 17.1 102520 92
2008-07-15 09:48:55 51°20.442 2°42.036 14.9 318 17.1 102520 92
2008-07-15 09:48:59 51°20.443 2°42.021 16 278 17.1 102520 92
2008-07-15 09:49:05 51°20.445 2°41.999 14.4 317 17.1 102520 92
2008-07-15 09:49:10 51°20.446 2°41.981 15.6 318 17.1 102510 92
2008-07-15 09:49:14 51°20.447 2°41.967 14.1 318 17.1 102510 92
2008-07-15 09:49:19 51°20.449 2°41.948 15.2 278 17.1 102510 92
2008-07-15 09:49:25 51°20.45 2°41.927 15.9 317 17.1 102510 92
2008-07-15 09:49:30 51°20.452 2°41.909 14.8 276 17.1 102510 92
2008-07-15 09:49:34 51°20.453 2°41.894 15.8 316 17.1 102510 92
2008-07-15 09:49:39 51°20.455 2°41.876 15.9 281 17.1 102510 92
2008-07-15 09:49:45 51°20.457 2°41.854 15.6 315 17.1 102510 92